Regional Weather Roundup
Issued by NWS Albany, NY

Home | Current Version | Previous Version | Text Only | Print | Product List | Glossary On
Versions: 1 2 3 4 5 6 7 8 9 10 11 12 13 14 15 16 17 18 19 20 21 22 23 24 25 26 27 28 29 30 31 32 33 34 35 36 37 38 39 40 41 42 43 44 45 46 47
000
ASUS41 KALY 251810
RWRALY

NEW YORK STATE HOURLY WEATHER ROUNDUP
NATIONAL WEATHER SERVICE ALBANY NY
100 PM EST THU DEC 25 2014

NOTE: "FAIR" INDICATES FEW OR NO CLOUDS BELOW 12,000 FEET WITH NO
SIGNIFICANT WEATHER AND/OR NO OBSTRUCTIONS TO VISIBILITY.

NYZ032-033-038>043-046>054-057>066-NYZ062>081-251900-
EAST


CITY           SKY/WX    TMP DP  RH WIND       PRES   REMARKS
ALBANY         PTSUNNY   49  31  49 W21       29.70R
GLENS FALLS    CLOUDY    46  30  53 SW9       29.64R
POUGHKEEPSIE   CLOUDY    50  29  44 W15G23    29.75R
NEWBURGH       PTSUNNY   48  34  57 NW21G32   29.76R
MONTGOMERY     CLOUDY    49  30  48 W12G20    29.75R
WHITE PLAINS   PTSUNNY   51  29  42 W21G31    29.75R
ISLIP          MOSUNNY   53  29  39 NW24G37   29.74R
NEW YORK CITY  PTSUNNY   52  28  39 W20G32    29.78R
CENTRAL PARK   PTSUNNY   52  27  38 NW13G22   29.81R
$$

NYZ005>009-017-018-044>046-055-056-251900-
CENTRAL


CITY           SKY/WX    TMP DP  RH WIND       PRES   REMARKS
FULTON         CLOUDY    44  33  65 W20G41    29.74R
SYRACUSE       CLOUDY    43  34  70 W16       29.75R
ROME           CLOUDY    42  34  73 W21G28    29.74R
ELMIRA         CLOUDY    44  32  62 SW10      29.80R
BINGHAMTON     CLOUDY    41  30  65 W23G37    29.75R
MONTICELLO     CLOUDY    43  30  61 W21G26    29.75R
$$

NYZ026>034-041>043-251900-
NORTH


CITY           SKY/WX    TMP DP  RH WIND       PRES   REMARKS
WATERTOWN      CLOUDY    43  33  68 W22G37    29.69R
FORT DRUM      NOT AVBL
MASSENA        CLOUDY    43  33  68 SW18G36   29.53R
SARANAC LAKE   MIX PCPN  35  33  92 W13G28    29.54R WCI  26
PLATTSBURGH    CLOUDY    45  33  63 SW9G24    29.53R
$$

NYZ001>004-010>016-019>021-251900-
WEST


CITY           SKY/WX    TMP DP  RH WIND       PRES   REMARKS
NIAGARA FALLS  LGT RAIN  41  33  73 W22G32    29.81R
BUFFALO        PTSUNNY   41  34  76 W22G32    29.81R
DUNKIRK        CLOUDY    40  34  79 SW24G33   29.88R WCI  29
JAMESTOWN      CLOUDY    36  28  75 W12G30    29.87R WCI  27
WELLSVILLE     LGT SNOW  34  31  88 W14G25    29.81R FOG     WCI  25
ROCHESTER      CLOUDY    44  31  60 W23G36    29.77R
PENN YAN       CLOUDY    42  34  73 SW16      29.79R
$$

             KEY
       WCI = WIND CHILL INDEX
       VSB = VISIBILITY
       HX  = HEAT INDEX
$$


USA.gov is the U.S. government's official web portal to all federal, state and local government web resources and services.